TimeEDT,TemperatureF,Dew PointF,Humidity,Sea Level PressureIn,VisibilityMPH,Wind Direction,Wind SpeedMPH,Gust SpeedMPH,PrecipitationIn,Events,Conditions,WindDirDegrees,DateUTC
12:56 AM,77.0,73.9,90,30.15,10.0,ESE,3.5,-,0.00,Rain,Light Rain,120,2013-07-03 04:56:00
1:56 AM,77.0,73.9,90,30.15,10.0,ESE,3.5,-,0.00,,Mostly Cloudy,120,2013-07-03 05:56:00
2:56 AM,77.0,73.9,90,30.14,10.0,SE,3.5,-,N/A,,Mostly Cloudy,140,2013-07-03 06:56:00
3:56 AM,77.0,73.9,90,30.14,10.0,SE,4.6,-,N/A,,Scattered Clouds,140,2013-07-03 07:56:00
4:56 AM,75.9,73.0,91,30.14,10.0,SSE,3.5,-,N/A,,Scattered Clouds,150,2013-07-03 08:56:00
5:56 AM,77.0,73.9,90,30.15,10.0,Calm,Calm,-,0.00,,Mostly Cloudy,0,2013-07-03 09:56:00
6:56 AM,77.0,75.0,94,30.17,10.0,Calm,Calm,-,N/A,,Scattered Clouds,0,2013-07-03 10:56:00
7:56 AM,81.0,77.0,88,30.17,10.0,ESE,5.8,-,0.01,,Scattered Clouds,120,2013-07-03 11:56:00
8:46 AM,78.8,71.6,78,30.19,8.0,SW,6.9,-,0.19,Rain-Thunderstorm,Light Thunderstorms and Rain,230,2013-07-03 12:46:00
8:56 AM,77.0,73.0,88,30.20,10.0,SW,9.2,-,0.19,Rain-Thunderstorm,Light Thunderstorms and Rain,220,2013-07-03 12:56:00
9:17 AM,78.8,73.4,83,30.20,10.0,SW,5.8,-,0.01,,Mostly Cloudy,230,2013-07-03 13:17:00
9:56 AM,81.0,73.9,79,30.20,10.0,South,8.1,-,0.01,,Scattered Clouds,170,2013-07-03 13:56:00
10:56 AM,84.9,75.0,72,30.20,10.0,South,10.4,-,N/A,,Mostly Cloudy,190,2013-07-03 14:56:00
11:56 AM,84.9,73.9,69,30.19,10.0,South,18.4,28.8,N/A,,Mostly Cloudy,170,2013-07-03 15:56:00
12:56 PM,84.0,75.0,74,30.19,10.0,South,15.0,-,0.01,,Mostly Cloudy,170,2013-07-03 16:56:00
1:56 PM,80.1,73.0,79,30.20,10.0,SSE,11.5,-,0.00,,Scattered Clouds,160,2013-07-03 17:56:00
2:56 PM,82.0,73.9,76,30.18,10.0,SSE,8.1,-,0.00,,Mostly Cloudy,150,2013-07-03 18:56:00
3:56 PM,84.0,73.0,69,30.18,10.0,South,16.1,-,N/A,,Mostly Cloudy,170,2013-07-03 19:56:00
4:56 PM,82.0,73.0,74,30.18,10.0,South,15.0,-,0.00,,Mostly Cloudy,170,2013-07-03 20:56:00
5:56 PM,82.0,72.0,71,30.17,10.0,South,9.2,-,0.00,,Mostly Cloudy,180,2013-07-03 21:56:00
6:56 PM,81.0,72.0,74,30.18,10.0,SSE,6.9,-,N/A,,Mostly Cloudy,160,2013-07-03 22:56:00
7:56 PM,82.0,73.9,76,30.18,10.0,SSE,9.2,-,N/A,,Mostly Cloudy,150,2013-07-03 23:56:00
8:24 PM,80.6,75.2,84,30.19,4.0,South,13.8,18.4,0.00,Rain,Rain,170,2013-07-04 00:24:00
8:56 PM,78.1,73.9,87,30.19,3.0,Variable,6.9,-,0.33,Rain,Light Rain,0,2013-07-04 00:56:00
9:12 PM,78.8,73.4,83,30.20,10.0,SSE,9.2,-,0.00,Rain-Thunderstorm,Light Thunderstorms and Rain,150,2013-07-04 01:12:00
9:56 PM,78.1,75.0,90,30.21,10.0,SE,3.5,-,0.00,,Mostly Cloudy,130,2013-07-04 01:56:00
10:56 PM,79.0,75.0,88,30.22,10.0,SSE,6.9,-,N/A,,Mostly Cloudy,150,2013-07-04 02:56:00
11:56 PM,78.1,73.9,87,30.23,9.0,SSE,6.9,-,0.01,Rain,Light Rain,160,2013-07-04 03:56:00